737  
ASUS41 KBOX 270810  
RWRBOX  
 
REGIONAL WEATHER ROUNDUP  
NATIONAL WEATHER SERVICE TAUNTON MA  
400 AM EDT MON MAR 27 2017  
 
NOTE: "FAIR" INDICATES FEW OR NO CLOUDS BELOW 12,000 FEET WITH NO  
SIGNIFICANT WEATHER AND/OR S TO VISIBILITY
.  
 
MAZALL-270900-  
EASTERN MASSACHUSETTS  
 
CITY SKY/WX TMP DP RH WIND PRES REMARKS
 
BOSTON CLOUDY 37 32 82 E12 30.31F WCI 29  
BEVERLY CLOUDY 38 30 73 SE6 30.30F  
LAWRENCE CLOUDY 34 31 88 NE5 30.32F WCI 30  
BEDFORD CLOUDY 36 28 73 E7 30.28F WCI 30  
BLUE HILL N/A 33 29 85 SE7 30.25F WCI 27  
NORWOOD CLOUDY 37 31 78 E5 30.30F  
MARSHFIELD CLOUDY 39 34 81 SE7 30.31F  
PLYMOUTH CLOUDY 36 33 89 NE3 30.30F  
TAUNTON LGT RAIN 36 32 85 CALM 30.29F  
NEW BEDFORD CLOUDY 37 34 89 E7 30.28F WCI 32  

 
 
MAZALL-270900-  
CAPE COD AND THE ISLANDS  
 
CITY SKY/WX TMP DP RH WIND PRES REMARKS
 
FALMOUTH NOT AVBL  
HYANNIS LGT RAIN 39 37 92 E6 30.28F  
CHATHAM CLOUDY 40 38 93 E10 30.30F  
PROVINCETOWN CLOUDY 39 35 86 E7 30.31F  
NANTUCKET CLOUDY 40 37 89 E14 30.27F  
MARTHAS VNYRD LGT RAIN 39 36 89 E10 30.27F  

 
 
MAZALL-270900-  
CENTRAL AND WESTERN MASSACHUSETTS  
 
CITY SKY/WX TMP DP RH WIND PRES REMARKS
 
WORCESTER CLOUDY 31 28 89 E7 30.24F WCI 24  
FITCHBURG CLOUDY 35 30 82 E5 30.29F WCI 31  
ORANGE CLOUDY 32 31 96 E3 30.26F  
SPRINGFIELD CLOUDY 34 32 93 CALM 30.24F  
WESTFIELD CLOUDY 34 32 92 CALM 30.25F  
NORTH ADAMS LGT RAIN 35 30 82 E15G22 30.19F WCI 25  
PITTSFIELD CLOUDY 31 29 92 NE5 30.16F WCI 26  

 
 
RIZALL-270900-  
RHODE ISLAND  
 
CITY SKY/WX TMP DP RH WIND PRES REMARKS
 
PROVIDENCE CLOUDY 36 32 85 E5 30.28F  
NEWPORT CLOUDY 36 35 96 NE6 30.27F WCI 31  
BLOCK ISLAND CLOUDY 37 37 100 E12G18 30.25F WCI 29  
SMITHFIELD MIX PCPN 33 32 96 E5 30.27F FOG WCI 29  
WESTERLY CLOUDY 37 36 96 NE7 30.26F WCI 32  

 
 
CTZALL-270900-  
CONNECTICUT  
 
CITY SKY/WX TMP DP RH WIND PRES REMARKS
 
BRADLEY INTL DRIZZLE 34 33 96 NE3 30.26F FOG  
HARTFORD CLOUDY 35 33 92 NE6 30.25F FOG WCI 30  
BRIDGEPORT CLOUDY 38 35 89 E14 30.23F FOG WCI 30  
DANBURY CLOUDY 35 34 96 E7 30.21F FOG WCI 29  
GROTON CLOUDY 37 35 92 NE8 30.25F WCI 31  
NEW HAVEN CLOUDY 36 35 96 NE7 30.23F FOG WCI 30  
CHESTER NOT AVBL  
MERIDEN CLOUDY 36 33 89 N3 30.24F FOG  
WILLIMANTIC LGT RAIN 36 34 92 NE5 30.27F FOG  
OXFORD CLOUDY 34 30 86 E8 30.21F WCI 27  

 
 
MEZ002-015-021-024-NHZ003-005-008-011-012-014-VTZ005-008-270900-  
NORTHERN NEW ENGLAND  
 
CITY SKY/WX TMP DP RH WIND PRES REMARKS
 
PORTLAND ME CLOUDY 34 29 82 E5 30.35F WCI 30  
BANGOR ME LGT SNOW 28 27 96 CALM 30.39F FOG  
CONCORD NH CLOUDY 33 29 85 CALM 30.30F  
MANCHESTER NH NOT AVBL  
NASHUA NH CLOUDY 34 31 88 CALM 30.30F  
PORTSMOUTH NH CLOUDY 36 30 79 E8 30.30F WCI 30  
JAFFREY NH CLOUDY 32 28 85 SE3 30.25F  
KEENE NH CLOUDY 33 30 88 S5 30.26F WCI 29  
BURLINGTON VT CLOUDY 37 30 75 S12 30.11F WCI 29  
MT. WASHINGTON FOG 32 32 100 SW47G53 N/A VSB 0 WCI 15  

 
 
NYZ052-076-270900-  
EASTERN NEW YORK  
 
CITY SKY/WX TMP DP RH WIND PRES REMARKS
 
ALBANY CLOUDY 36 31 82 S14 30.17F WCI 27  
NEW YORK CITY DRIZZLE 40 37 89 NE10 30.20F FOG  

 
 
ANZALL-270900-  
MARINE OBSERVATIONS  
 
STATION/POSITION TIME TEMP WIND PRES VSBY WAVE
 
AIR SEA DIR/SP/G HT/PER  
(UTC) (F) (DEG/KT/KT) (MB) (MI) (FT/S)  
BOSTON BUOY 0650 39 40 110/ 12/ 14 1026.8 2/ 6  
BUZZARDS BAY 0700 35 70/ 13/ 14 1026.2F  
NANTUCKET SOUND 0750 38 1025.5F 1/ 4  
MASS BAY-STELLWA 0704 39 39 110/ 10/ 12 1026.3F 3/ 5  
ISLE OF SHOALS 0700 37 120/ 14/ 15 1027.3F  
S OF BLOCK IS 0755 40 N/A 4/ 6  

 
   
.....................KEY......................
 
 
SKY/WX - SKY CONDITION/PRESENT WEATHER  
TMP - TEMPERATURE IN FAHRENHEIT  
DWPT - DEWPOINT IN FAHRENHEIT  
RH - RELATIVE HUMIDITY IN PERCENT  
WIND - DIRECTION AND SPEED IN MPH  
PRES - MEAN SEA LEVEL PRESSURE IN INCHES OF HG  
WCI - WIND CHILL INDEX  
VSB - VISIBILITY IN MILES  
HX - HEAT INDEX  
TC - TEMPERATURE IN CELSIUS  
VRB - VARIABLE WIND DIRECTION  
N/A - NOT AVAILABLE  
 
 
CLICK HERE TO GO TO PREVIOUS BULLETINS.

The Nexlab MA Page
The Nexlab RI Page
The Nexlab NH Page
The Nexlab CT Page Main Text Page